Time,TemperatureF,DewpointF,PressureIn,WindDirection,WindDirectionDegrees,WindSpeedMPH,WindSpeedGustMPH,Humidity,HourlyPrecipIn,Conditions,Clouds,dailyrainin,SolarRadiationWatts/m^2,SoftwareType,DateUTC
2013-05-01 00:01:00,24.0,16.0,-100.00,NNE,17,4.0,16.0,71,0.00,,,-99.99,0.000000,,2013-05-01 06:01:00,
2013-05-01 00:32:00,23.0,21.0,-100.00,ENE,66,2.0,7.0,92,0.00,,,-99.99,0.000000,,2013-05-01 06:32:00,
2013-05-01 00:42:00,23.0,21.0,-100.00,ENE,66,2.0,7.0,92,0.00,,,-99.99,0.000000,,2013-05-01 06:42:00,
2013-05-01 00:52:00,23.0,21.0,-100.00,ENE,66,2.0,7.0,92,0.00,,,-99.99,0.000000,,2013-05-01 06:52:00,
2013-05-01 01:01:00,23.0,21.0,-100.00,ENE,66,2.0,7.0,92,0.00,,,-99.99,0.000000,,2013-05-01 07:01:00,
2013-05-01 01:32:00,24.0,17.0,-100.00,WSW,244,6.0,10.0,75,0.00,,,-99.99,0.000000,,2013-05-01 07:32:00,
2013-05-01 01:42:00,24.0,17.0,-100.00,WSW,244,6.0,10.0,75,0.00,,,-99.99,0.000000,,2013-05-01 07:42:00,
2013-05-01 01:52:00,24.0,17.0,-100.00,WSW,244,6.0,10.0,75,0.00,,,-99.99,0.000000,,2013-05-01 07:52:00,
2013-05-01 02:01:00,24.0,17.0,-100.00,WSW,244,6.0,10.0,75,0.00,,,-99.99,0.000000,,2013-05-01 08:01:00,
2013-05-01 02:32:00,25.0,16.0,-100.00,West,259,7.0,10.0,69,0.00,,,0.01,0.000000,,2013-05-01 08:32:00,
2013-05-01 02:42:00,25.0,16.0,-100.00,West,259,7.0,10.0,69,0.00,,,0.01,0.000000,,2013-05-01 08:42:00,
2013-05-01 02:53:00,25.0,16.0,-100.00,West,259,7.0,10.0,69,0.00,,,0.01,0.000000,,2013-05-01 08:53:00,
2013-05-01 03:01:00,25.0,16.0,-100.00,West,259,7.0,10.0,69,0.00,,,0.01,0.000000,,2013-05-01 09:01:00,
2013-05-01 03:33:00,25.0,16.0,-100.00,West,264,9.0,15.0,67,0.00,,,-99.99,0.000000,,2013-05-01 09:33:00,
2013-05-01 03:43:00,25.0,16.0,-100.00,West,264,9.0,15.0,67,0.00,,,-99.99,0.000000,,2013-05-01 09:43:00,
2013-05-01 03:53:00,25.0,16.0,-100.00,West,264,9.0,15.0,67,0.00,,,-99.99,0.000000,,2013-05-01 09:53:00,
2013-05-01 04:02:00,25.0,16.0,-100.00,West,264,9.0,15.0,67,0.00,,,-99.99,0.000000,,2013-05-01 10:02:00,
2013-05-01 04:33:00,25.0,15.0,-100.00,West,269,9.0,14.0,65,0.00,,,-99.99,0.000000,,2013-05-01 10:33:00,
2013-05-01 04:42:00,25.0,15.0,-100.00,West,269,9.0,14.0,65,0.00,,,-99.99,0.000000,,2013-05-01 10:42:00,
2013-05-01 04:52:00,25.0,15.0,-100.00,West,269,9.0,14.0,65,0.00,,,-99.99,0.000000,,2013-05-01 10:52:00,
2013-05-01 05:02:00,25.0,15.0,-100.00,West,269,9.0,14.0,65,0.00,,,-99.99,0.000000,,2013-05-01 11:02:00,
2013-05-01 05:32:00,26.0,17.0,-100.00,West,263,9.0,16.0,67,0.00,,,-99.99,0.000000,,2013-05-01 11:32:00,
2013-05-01 05:42:00,26.0,17.0,-100.00,West,263,9.0,16.0,67,0.00,,,-99.99,0.000000,,2013-05-01 11:42:00,
2013-05-01 05:52:00,26.0,17.0,-100.00,West,263,9.0,16.0,67,0.00,,,-99.99,0.000000,,2013-05-01 11:52:00,
2013-05-01 06:01:00,26.0,17.0,-100.00,West,263,9.0,16.0,67,0.00,,,-99.99,0.000000,,2013-05-01 12:01:00,
2013-05-01 07:32:00,25.0,13.0,-100.00,WSW,241,5.0,16.0,61,-99.99,,,-99.99,15.000000,,2013-05-01 13:32:00,
2013-05-01 07:42:00,25.0,13.0,-100.00,WSW,241,5.0,16.0,61,-99.99,,,-99.99,15.000000,,2013-05-01 13:42:00,
2013-05-01 07:52:00,25.0,13.0,-100.00,WSW,241,5.0,16.0,61,-99.99,,,-99.99,15.000000,,2013-05-01 13:52:00,
2013-05-01 08:02:00,25.0,13.0,-100.00,WSW,241,5.0,16.0,61,-99.99,,,-99.99,15.000000,,2013-05-01 14:02:00,
2013-05-01 08:32:00,29.0,15.0,-100.00,West,275,9.0,14.0,55,0.00,,,-99.99,188.000000,,2013-05-01 14:32:00,
2013-05-01 08:42:00,29.0,15.0,-100.00,West,275,9.0,14.0,55,0.00,,,-99.99,188.000000,,2013-05-01 14:42:00,
2013-05-01 08:52:00,29.0,15.0,-100.00,West,275,9.0,14.0,55,0.00,,,-99.99,188.000000,,2013-05-01 14:52:00,
2013-05-01 09:01:00,29.0,15.0,-100.00,West,275,9.0,14.0,55,0.00,,,-99.99,188.000000,,2013-05-01 15:01:00,
2013-05-01 09:33:00,32.0,15.0,-100.00,WNW,282,12.0,15.0,49,0.00,,,-99.99,417.000000,,2013-05-01 15:33:00,
2013-05-01 09:43:00,32.0,15.0,-100.00,WNW,282,12.0,15.0,49,0.00,,,-99.99,417.000000,,2013-05-01 15:43:00,
2013-05-01 09:53:00,32.0,15.0,-100.00,WNW,282,12.0,15.0,49,0.00,,,-99.99,417.000000,,2013-05-01 15:53:00,
2013-05-01 10:02:00,32.0,15.0,-100.00,WNW,282,12.0,15.0,49,0.00,,,-99.99,417.000000,,2013-05-01 16:02:00,
2013-05-01 10:32:00,35.0,15.0,-100.00,WNW,285,7.0,15.0,43,0.00,,,0.01,603.000000,,2013-05-01 16:32:00,
2013-05-01 10:42:00,35.0,15.0,-100.00,WNW,285,7.0,15.0,43,0.00,,,0.01,603.000000,,2013-05-01 16:42:00,
2013-05-01 10:53:00,35.0,15.0,-100.00,WNW,285,7.0,15.0,43,0.00,,,0.01,603.000000,,2013-05-01 16:53:00,
2013-05-01 11:02:00,35.0,15.0,-100.00,WNW,285,7.0,15.0,43,0.00,,,0.01,603.000000,,2013-05-01 17:02:00,
2013-05-01 11:32:00,34.0,12.0,-100.00,WNW,283,9.0,19.0,40,0.00,,,-99.99,554.000000,,2013-05-01 17:32:00,
2013-05-01 11:42:00,34.0,12.0,-100.00,WNW,283,9.0,19.0,40,0.00,,,-99.99,554.000000,,2013-05-01 17:42:00,
2013-05-01 11:52:00,34.0,12.0,-100.00,WNW,283,9.0,19.0,40,0.00,,,-99.99,554.000000,,2013-05-01 17:52:00,
2013-05-01 12:01:00,34.0,12.0,-100.00,WNW,283,9.0,19.0,40,0.00,,,-99.99,554.000000,,2013-05-01 18:01:00,
2013-05-01 12:32:00,39.0,13.0,-100.00,WNW,287,13.0,20.0,34,0.00,,,0.00,923.000000,,2013-05-01 18:32:00,
2013-05-01 12:42:00,39.0,13.0,-100.00,WNW,287,13.0,20.0,34,0.00,,,0.00,923.000000,,2013-05-01 18:42:00,
2013-05-01 12:52:00,39.0,13.0,-100.00,WNW,287,13.0,20.0,34,0.00,,,0.00,923.000000,,2013-05-01 18:52:00,
2013-05-01 13:01:00,39.0,13.0,-100.00,WNW,287,13.0,20.0,34,0.00,,,0.00,923.000000,,2013-05-01 19:01:00,
2013-05-01 13:32:00,38.0,11.0,-100.00,West,275,8.0,20.0,33,0.00,,,0.00,606.000000,,2013-05-01 19:32:00,
2013-05-01 13:43:00,38.0,11.0,-100.00,West,275,8.0,20.0,33,0.00,,,0.00,606.000000,,2013-05-01 19:43:00,
2013-05-01 13:52:00,38.0,11.0,-100.00,West,275,8.0,20.0,33,0.00,,,0.00,606.000000,,2013-05-01 19:52:00,
2013-05-01 14:01:00,38.0,11.0,-100.00,West,275,8.0,20.0,33,0.00,,,0.00,606.000000,,2013-05-01 20:01:00,
2013-05-01 14:32:00,37.0,10.0,-100.00,WNW,282,16.0,22.0,32,0.00,,,0.00,666.000000,,2013-05-01 20:32:00,
2013-05-01 14:42:00,37.0,10.0,-100.00,WNW,282,16.0,22.0,32,0.00,,,0.00,666.000000,,2013-05-01 20:42:00,
2013-05-01 14:52:00,37.0,10.0,-100.00,WNW,282,16.0,22.0,32,0.00,,,0.00,666.000000,,2013-05-01 20:52:00,
2013-05-01 15:01:00,37.0,10.0,-100.00,WNW,282,16.0,22.0,32,0.00,,,0.00,666.000000,,2013-05-01 21:01:00,
2013-05-01 15:32:00,42.0,12.0,-100.00,WNW,289,14.0,25.0,29,0.00,,,0.00,928.000000,,2013-05-01 21:32:00,
2013-05-01 15:43:00,42.0,12.0,-100.00,WNW,289,14.0,25.0,29,0.00,,,0.00,928.000000,,2013-05-01 21:43:00,
2013-05-01 15:53:00,42.0,12.0,-100.00,WNW,289,14.0,25.0,29,0.00,,,0.00,928.000000,,2013-05-01 21:53:00,
2013-05-01 16:03:00,42.0,12.0,-100.00,WNW,289,14.0,25.0,29,0.00,,,0.00,928.000000,,2013-05-01 22:03:00,
2013-05-01 16:33:00,43.0,14.0,-100.00,West,280,10.0,22.0,31,0.00,,,0.00,821.000000,,2013-05-01 22:33:00,
2013-05-01 16:42:00,43.0,14.0,-100.00,West,280,10.0,22.0,31,0.00,,,0.00,821.000000,,2013-05-01 22:42:00,
2013-05-01 16:53:00,43.0,14.0,-100.00,West,280,10.0,22.0,31,0.00,,,0.00,821.000000,,2013-05-01 22:53:00,
2013-05-01 17:01:00,43.0,14.0,-100.00,West,280,10.0,22.0,31,0.00,,,0.00,821.000000,,2013-05-01 23:01:00,
2013-05-01 17:32:00,43.0,14.0,-100.00,West,281,15.0,22.0,31,0.00,,,0.00,608.000000,,2013-05-01 23:32:00,
2013-05-01 17:42:00,43.0,14.0,-100.00,West,281,15.0,22.0,31,0.00,,,0.00,608.000000,,2013-05-01 23:42:00,
2013-05-01 17:52:00,43.0,14.0,-100.00,West,281,15.0,22.0,31,0.00,,,0.00,608.000000,,2013-05-01 23:52:00,
2013-05-01 18:01:00,43.0,14.0,-100.00,West,281,15.0,22.0,31,0.00,,,0.00,608.000000,,2013-05-02 00:01:00,
2013-05-01 19:32:00,44.0,15.0,-100.00,WNW,289,7.0,20.0,30,-99.99,,,0.00,368.000000,,2013-05-02 01:32:00,
2013-05-01 19:42:00,44.0,15.0,-100.00,WNW,289,7.0,20.0,30,-99.99,,,0.00,368.000000,,2013-05-02 01:42:00,
2013-05-01 19:52:00,44.0,15.0,-100.00,WNW,289,7.0,20.0,30,-99.99,,,0.00,368.000000,,2013-05-02 01:52:00,
2013-05-01 20:01:00,44.0,15.0,-100.00,WNW,289,7.0,20.0,30,-99.99,,,0.00,368.000000,,2013-05-02 02:01:00,
2013-05-01 20:32:00,40.0,13.0,-100.00,West,280,8.0,15.0,33,0.00,,,0.00,141.000000,,2013-05-02 02:32:00,
2013-05-01 20:42:00,40.0,13.0,-100.00,West,280,8.0,15.0,33,0.00,,,0.00,141.000000,,2013-05-02 02:42:00,
2013-05-01 20:51:00,40.0,13.0,-100.00,West,280,8.0,15.0,33,0.00,,,0.00,141.000000,,2013-05-02 02:51:00,
2013-05-01 21:01:00,40.0,13.0,-100.00,West,280,8.0,15.0,33,0.00,,,0.00,141.000000,,2013-05-02 03:01:00,
2013-05-01 21:33:00,37.0,13.0,-100.00,WSW,254,5.0,9.0,36,0.00,,,0.00,13.000000,,2013-05-02 03:33:00,
2013-05-01 21:43:00,37.0,13.0,-100.00,WSW,254,5.0,9.0,36,0.00,,,0.00,13.000000,,2013-05-02 03:43:00,
2013-05-01 21:53:00,37.0,13.0,-100.00,WSW,254,5.0,9.0,36,0.00,,,0.00,13.000000,,2013-05-02 03:53:00,
2013-05-01 22:03:00,37.0,13.0,-100.00,WSW,254,5.0,9.0,36,0.00,,,0.00,13.000000,,2013-05-02 04:03:00,
2013-05-01 22:33:00,36.0,12.0,-100.00,WSW,256,6.0,9.0,37,0.00,,,0.00,0.000000,,2013-05-02 04:33:00,
2013-05-01 22:43:00,36.0,12.0,-100.00,WSW,256,6.0,9.0,37,0.00,,,0.00,0.000000,,2013-05-02 04:43:00,
2013-05-01 22:52:00,36.0,12.0,-100.00,WSW,256,6.0,9.0,37,0.00,,,0.00,0.000000,,2013-05-02 04:52:00,
2013-05-01 23:02:00,36.0,12.0,-100.00,WSW,256,6.0,9.0,37,0.00,,,0.00,0.000000,,2013-05-02 05:02:00,
2013-05-01 23:32:00,35.0,13.0,-100.00,SSW,212,3.0,11.0,40,0.00,,,0.00,0.000000,,2013-05-02 05:32:00,
2013-05-01 23:42:00,35.0,13.0,-100.00,SSW,212,3.0,11.0,40,0.00,,,0.00,0.000000,,2013-05-02 05:42:00,
2013-05-01 23:52:00,35.0,13.0,-100.00,SSW,212,3.0,11.0,40,0.00,,,0.00,0.000000,,2013-05-02 05:52:00,